Location: Wingville
(42.9917°N, 90.4915°W)
Time: 16:38:42
(UTC+00:00)

EO-79 - Pass Details

Date: 02 July 2022
Orbit: 588 x 603 km, 98.0° (Epoch: 17 August)

Event Time Altitude Azimuth Distance (km) Brightness Sun altitude
Rises 09:10:49 0° 352° (N) 2,856 ? -11.5°
Reaches altitude 10° 09:14:05 10° 325° (NW) 1,951 ? -11.1°
Maximum altitude 09:15:58 13° 298° (WNW) 1,767 ? -10.9°
Drops below altitude 10° 09:17:51 10° 271° (W) 1,948 ? -10.6°
Enters shadow 09:18:37 - 263° (W) 2,107 ? -10.5°
